[[{"header":{"parameterUnit":"m.s-1","parameterCategory":1,"la1":30.2991,"la2":30.254,"lo1":-89.0895,"lo2":-89.0444,"dy":0.0017,"dx":0.0017,"nx":28,"ny":28,"refTime":"2024-05-11T09:00:00:Z","depth":0,"parameterNumber":2,"parameterNumberName":"U-component_of_WINDS"},"data":[0,0,0,0,0,0,0,0,0,0,0,0,0,0,0,0,0,0,0,0,0,0,0,0,0,0,0,0,0,0,0,0,0,0,0,0,0,0,0,0,0,0,0,0,0,0,0,0,0,0,0,0,0,0,0,0,0,0,-1.7791,-1.7792,0,-1.7933,-1.7935,-1.7937,-1.7909,-1.7907,-1.7904,-1.7902,-1.805,-1.8056,-1.8063,0,0,0,0,0,0,0,0,0,0,0,0,0,-1.7496,-1.7501,-1.7791,-1.7792,-1.7794,-1.7933,-1.7935,-1.7937,-1.791,-1.7907,-1.7903,-1.79,-1.8048,-1.8056,-1.8063,0,0,0,0,0,0,0,0,0,0,0,0,0,-1.763,-1.7503,-1.779,-1.7797,-1.7799,-1.7933,-1.7935,-1.7938,-1.791,-1.7906,-1.7903,-1.7899,-1.8046,-1.8055,-1.8064,-1.8201,0,0,-1.8093,-1.8098,0,0,0,0,0,0,0,0,-1.7622,-1.7641,-1.7794,-1.7797,-1.7799,-1.79,-1.7886,-1.8026,-1.7911,-1.7868,-1.7902,-1.7897,-1.8003,-1.8016,-1.8052,-1.8208,-1.8214,-1.8094,-1.81,-1.8104,-1.8107,0,0,0,0,0,0,0,-1.7613,-1.7634,-1.7847,-1.7797,-1.78,-1.7794,-1.7808,-1.7912,-1.7956,-1.7872,-1.787,-1.7887,-1.8004,-1.8042,-1.8055,-1.8216,-1.8094,-1.8103,-1.8108,-1.8112,-1.8492,-1.8496,0,0,0,0,0,0,-1.7601,-1.7627,-1.7843,-1.7851,-1.7699,-1.7802,-1.7819,-1.7871,-1.7955,-1.7964,-1.789,-1.7885,-1.8028,-1.8044,-1.806,-1.8226,-1.8104,-1.8113,-1.8119,-1.8488,-1.8493,-1.8498,0,0,0,0,0,0,-1.7595,-1.7621,-1.7837,-1.7739,-1.7766,-1.7811,-1.7871,-1.7876,-1.7915,-1.7969,-1.7977,-1.7922,-1.8026,-1.8046,-1.8166,-1.8231,-1.8117,-1.8126,-1.8483,-1.8489,-1.8495,-1.8559,0,0,0,0,0,0,-1.7586,-1.7618,-1.7671,-1.774,-1.7771,-1.794,-1.7875,-1.7882,-1.7931,-1.7926,-1.8,-1.8009,-1.8024,-1.8152,-1.8175,-1.8242,-1.8133,-1.8477,-1.8486,-1.8493,-1.8552,-1.8567,-1.8581,0,0,0,0,0,-1.7576,-1.7683,-1.7673,-1.77,-1.7837,-1.7944,-1.7962,-1.7977,-1.7936,-1.7989,-1.8024,-1.8006,-1.8219,-1.8164,-1.8191,-1.8261,-1.8473,-1.8483,-1.8493,-1.8545,-1.8564,-1.858,0,0,0,0,0,0,-1.7621,-1.7692,-1.7682,-1.7815,-1.7874,-1.7939,-1.8007,-1.7997,-1.8069,-1.8061,-1.8077,-1.8094,-1.8216,-1.825,-1.8187,-1.8398,-1.8341,-1.8356,-1.8371,-1.839,-1.8404,-1.8395,-1.8141,0,0,0,0,0,-1.7646,-1.7727,-1.7785,-1.7896,-1.7926,-1.7961,-1.8009,-1.8015,-1.8077,-1.8101,-1.8145,-1.8206,-1.8287,-1.834,-1.8417,-1.8555,-1.8572,-1.8617,-1.8631,-1.8643,-1.8657,-1.8734,-1.8755,-1.853,-1.853,-1.853,0,0,-1.77,-1.7749,-1.7799,-1.7907,-1.7953,-1.8037,-1.7983,-1.8073,-1.8136,-1.8115,-1.8231,-1.8265,-1.8334,-1.8464,-1.8523,-1.8496,-1.8722,-1.8655,-1.8664,-1.8672,-1.8746,-1.8767,-1.8786,-1.8537,-1.8535,-1.8534,0,0,-1.784,-1.7885,-1.7983,-1.803,-1.81,-1.8123,-1.8146,-1.8213,-1.8235,-1.8351,-1.8337,-1.8412,-1.855,-1.86,-1.8644,-1.8802,-1.8789,-1.8827,-1.8903,-1.8978,-1.8996,-1.9012,-1.907,-1.909,-1.884,-1.884,-1.884,0,-1.7898,-1.8024,-1.8035,-1.8127,-1.8176,-1.8159,-1.826,-1.8305,-1.8397,-1.8431,-1.8399,-1.8572,-1.8618,-1.876,-1.8798,-1.8833,-1.8862,-1.882,-1.8992,-1.9008,-1.9023,-1.9079,-1.9101,-1.8844,-1.8844,-1.8843,-1.8843,0,-1.8092,-1.8179,-1.825,-1.8339,-1.8395,-1.849,-1.8517,-1.8572,-1.8573,-1.8599,-1.8718,-1.8771,-1.8859,-1.8893,-1.8895,-1.9035,-1.9016,-1.8988,-1.8931,-1.9049,-1.9101,-1.9123,-1.885,-1.8849,-1.8848,-1.8847,0,0,-1.8268,-1.836,-1.8387,-1.8427,-1.8502,-1.857,-1.8665,-1.875,-1.8798,-1.8861,-1.8943,-1.9059,-1.9034,-1.9083,-1.909,-1.9155,-1.9279,-1.9119,-1.9121,-1.9149,-1.9439,-1.9462,-1.9486,-1.9269,-1.9273,-1.9277,-1.9434,0,-1.8417,-1.8584,-1.8597,-1.8748,-1.8829,-1.8814,-1.8897,-1.8953,-1.8979,-1.9052,-1.9081,-1.9164,-1.9123,-1.9153,-1.9216,-1.9251,-1.9338,-1.9239,-1.9347,-1.935,-1.9333,-1.9513,-1.9538,-1.9684,-1.9454,-1.9458,-1.946,0,-1.8614,-1.8683,-1.8843,-1.8907,-1.8941,-1.9015,-1.9095,-1.9164,-1.9227,-1.9241,-1.9296,-1.9294,-1.9392,-1.9329,-1.9465,-1.9398,-1.9442,-1.9465,-1.9471,-1.9484,-1.9414,-1.9533,-1.973,-1.9753,-1.9492,-1.949,-1.9488,0,-1.8729,-1.8861,-1.8974,-1.9009,-1.9086,-1.9139,-1.9173,-1.9232,-1.9282,-1.9351,-1.9385,-1.9464,-1.9508,-1.957,-1.959,-1.9542,-1.9726,-1.9665,-1.9742,-1.9742,-1.9784,-1.9782,-1.9994,-1.9808,-1.9808,-1.9808,-1.9807,0,-1.8896,-1.8995,-1.9027,-1.9097,-1.9207,-1.9219,-1.9328,-1.936,-1.9412,-1.9488,-1.9479,-1.955,-1.9571,-1.9646,-1.9662,-1.9773,-1.9792,-1.9808,-1.9811,-1.981,-1.9809,-1.9842,-1.9833,-1.9813,-1.9812,-1.9811,-1.981,0,-1.9044,-1.9069,-1.9192,-1.9254,-1.9272,-1.9351,-1.9404,-1.9472,-1.9495,-1.9592,-1.9615,-1.9653,-1.9742,-1.9766,-1.9872,-1.9883,-2.0014,-2.0007,-1.9993,-1.9994,-2.0071,-2.0064,-2.0314,-2.0348,-2.0138,-2.014,-2.0141,0,-1.9151,-1.9226,-1.9296,-1.9346,-1.9383,-1.9464,-1.9515,-1.953,-1.9584,-1.966,-1.9719,-1.9805,-1.9876,-2.0017,-2.0055,-2.0136,-2.0132,-2.0214,-2.0145,-2.0141,-2.0136,-2.0133,-2.0141,-2.0228,-2.023,-2.0232,-2.0233,0,-1.9338,-1.9346,-1.942,-1.9499,-1.956,-1.9623,-1.9683,-1.9724,-1.9748,-1.9809,-1.9898,-1.9953,-2.006,-2.0147,-2.0229,-2.0265,-2.0254,-2.0254,-2.0277,-2.0278,-2.0268,-2.0277,-2.0032,-2.0249,-2.0248,-2.0247,-2.0246,-2.0245,-1.947,-1.9537,-1.9596,-1.9679,-1.9726,-1.9782,-1.9849,-1.988,-1.9955,-2.0044,-2.0048,-2.0145,-2.0206,-2.0314,-2.0354,-2.0431,-2.0407,-2.044,-2.0448,-2.0457,-2.0464,-2.0253,-2.0446,-2.0445,-2.0445,-2.0445,-2.0444,0,-1.9658,-1.9695,-1.9771,-1.9856,-1.9921,-1.9903,-1.9968,-2.0024,-2.011,-2.0167,-2.0236,-2.0339,-2.0423,-2.0466,-2.055,-2.0603,-2.06,-2.0625,-2.0622,-2.0631,-2.048,-2.0453,-2.0626,-2.0626,-2.0625,-2.0625,-2.0625,-2.0625,-1.9764,-1.9876,-1.9892,-2.0027,-2.0064,-2.0159,-2.0198,-2.025,-2.0296,-2.0411,-2.048,-2.0507,-2.0559,-2.0646,-2.0722,-2.0733,-2.0765,-2.0793,-2.0801,-2.066,-2.0642,-2.0624,-2.0599,-2.0799,-2.0799,-2.0946,-2.0947,-2.0948]},{"header":{"parameterUnit":"m.s-1","parameterCategory":1,"la1":30.2991,"la2":30.254,"lo1":-89.0895,"lo2":-89.0444,"dy":0.0017,"dx":0.0017,"nx":28,"ny":28,"refTime":"2024-05-11T09:00:00:Z","depth":0,"parameterNumber":3,"parameterNumberName":"V-component_of_WINDS"},"data":[0,0,0,0,0,0,0,0,0,0,0,0,0,0,0,0,0,0,0,0,0,0,0,0,0,0,0,0,0,0,0,0,0,0,0,0,0,0,0,0,0,0,0,0,0,0,0,0,0,0,0,0,0,0,0,0,0,0,-6.1464,-6.1464,0,-6.1531,-6.1532,-6.1533,-6.1453,-6.145,-6.1447,-6.1444,-6.1509,-6.1513,-6.1518,0,0,0,0,0,0,0,0,0,0,0,0,0,-6.1259,-6.1263,-6.1463,-6.1464,-6.1465,-6.1531,-6.1532,-6.1533,-6.1454,-6.145,-6.1446,-6.1443,-6.1508,-6.1513,-6.1518,0,0,0,0,0,0,0,0,0,0,0,0,0,-6.1339,-6.1265,-6.1463,-6.1434,-6.1432,-6.1531,-6.1532,-6.1533,-6.1454,-6.145,-6.1446,-6.1441,-6.1506,-6.1512,-6.1519,-6.1649,0,0,-6.154,-6.1543,0,0,0,0,0,0,0,0,-6.1335,-6.1347,-6.1437,-6.1436,-6.1434,-6.1479,-6.1484,-6.1572,-6.1456,-6.1446,-6.1444,-6.1439,-6.1502,-6.1509,-6.1532,-6.1652,-6.1655,-6.154,-6.1544,-6.1547,-6.1549,0,0,0,0,0,0,0,-6.133,-6.1344,-6.149,-6.1439,-6.1437,-6.1415,-6.1421,-6.15,-6.1498,-6.1446,-6.1441,-6.145,-6.1501,-6.1525,-6.1532,-6.1656,-6.154,-6.1546,-6.155,-6.1553,-6.1885,-6.189,0,0,0,0,0,0,-6.1328,-6.134,-6.1488,-6.1492,-6.1373,-6.1422,-6.143,-6.1469,-6.1497,-6.1497,-6.1454,-6.1446,-6.1516,-6.1525,-6.1534,-6.1688,-6.1547,-6.1553,-6.1557,-6.1881,-6.1886,-6.1892,0,0,0,0,0,0,-6.1324,-6.1342,-6.1485,-6.1414,-6.1431,-6.1431,-6.1476,-6.1473,-6.1497,-6.1503,-6.1501,-6.148,-6.1513,-6.1525,-6.1621,-6.1689,-6.1556,-6.1563,-6.1875,-6.1882,-6.1889,-6.1996,0,0,0,0,0,0,-6.1319,-6.1341,-6.1392,-6.1416,-6.1435,-6.1573,-6.148,-6.1477,-6.151,-6.15,-6.1527,-6.1527,-6.151,-6.1612,-6.1628,-6.1696,-6.1568,-6.1869,-6.1878,-6.1887,-6.1987,-6.2006,-6.2023,0,0,0,0,0,-6.1312,-6.1419,-6.1395,-6.1414,-6.1499,-6.1577,-6.1588,-6.1568,-6.1516,-6.1566,-6.1569,-6.1526,-6.1679,-6.1622,-6.164,-6.1711,-6.1864,-6.1876,-6.1886,-6.1979,-6.2003,-6.2023,0,0,0,0,0,0,-6.1402,-6.1422,-6.1396,-6.1515,-6.1545,-6.1564,-6.1627,-6.1594,-6.1639,-6.1628,-6.16,-6.1607,-6.1709,-6.1719,-6.1656,-6.1837,-6.1763,-6.1778,-6.1827,-6.185,-6.1868,-6.1863,-6.1573,0,0,0,0,0,-6.1436,-6.1499,-6.1512,-6.1616,-6.1633,-6.1627,-6.1661,-6.1643,-6.1672,-6.1685,-6.1695,-6.1724,-6.1778,-6.1814,-6.1865,-6.1988,-6.1991,-6.2045,-6.2063,-6.2078,-6.2091,-6.2155,-6.2179,-6.1927,-6.1927,-6.1927,0,0,-6.1506,-6.1525,-6.1566,-6.1635,-6.1656,-6.1721,-6.1639,-6.1711,-6.1757,-6.1695,-6.1787,-6.1795,-6.1825,-6.1936,-6.1984,-6.1947,-6.2161,-6.2092,-6.2104,-6.2109,-6.2169,-6.2193,-6.2214,-6.1934,-6.1933,-6.1932,0,0,-6.1667,-6.1688,-6.1776,-6.18,-6.1834,-6.1829,-6.1851,-6.1874,-6.1878,-6.197,-6.1924,-6.1978,-6.2073,-6.2096,-6.212,-6.2289,-6.2251,-6.2306,-6.2401,-6.2464,-6.2484,-6.2501,-6.256,-6.2582,-6.2319,-6.232,-6.232,0,-6.175,-6.1847,-6.1825,-6.1901,-6.1931,-6.1879,-6.1966,-6.1989,-6.2038,-6.2059,-6.2017,-6.2134,-6.2151,-6.2265,-6.2306,-6.2328,-6.2349,-6.2303,-6.2483,-6.25,-6.2516,-6.2572,-6.2594,-6.2326,-6.2325,-6.2325,-6.2324,0,-6.1946,-6.2014,-6.2081,-6.213,-6.2168,-6.2249,-6.2238,-6.2279,-6.2257,-6.2257,-6.235,-6.2368,-6.2421,-6.2446,-6.2426,-6.2557,-6.2533,-6.2488,-6.2412,-6.2547,-6.2599,-6.262,-6.2335,-6.2333,-6.2331,-6.2329,0,0,-6.2166,-6.2202,-6.2227,-6.2248,-6.2282,-6.2333,-6.241,-6.2463,-6.2498,-6.2533,-6.2596,-6.2677,-6.2635,-6.2662,-6.2644,-6.2699,-6.283,-6.2646,-6.2647,-6.2679,-6.2974,-6.3008,-6.3033,-6.2805,-6.2809,-6.2812,-6.2971,0,-6.2327,-6.2464,-6.2446,-6.2576,-6.2638,-6.2588,-6.2655,-6.2682,-6.2683,-6.2734,-6.2734,-6.2792,-6.2732,-6.2749,-6.2801,-6.2803,-6.2889,-6.2791,-6.2862,-6.2864,-6.2855,-6.306,-6.3096,-6.3246,-6.2991,-6.2995,-6.2997,0,-6.2533,-6.2577,-6.2714,-6.2736,-6.2761,-6.2823,-6.2869,-6.2919,-6.2947,-6.2943,-6.2974,-6.2945,-6.3021,-6.2944,-6.3047,-6.2981,-6.3008,-6.3014,-6.3019,-6.3024,-6.2939,-6.307,-6.3293,-6.3316,-6.3029,-6.3027,-6.3025,0,-6.2679,-6.2771,-6.2865,-6.2885,-6.2914,-6.2958,-6.2971,-6.2995,-6.3028,-6.3068,-6.3088,-6.3136,-6.3162,-6.3198,-6.3182,-6.3128,-6.3288,-6.321,-6.3285,-6.3286,-6.3321,-6.3319,-6.3551,-6.334,-6.334,-6.3339,-6.3339,0,-6.286,-6.2945,-6.2931,-6.2988,-6.3082,-6.3059,-6.3152,-6.3159,-6.3181,-6.3237,-6.3197,-6.325,-6.3226,-6.3277,-6.3265,-6.3351,-6.3363,-6.3361,-6.3357,-6.3365,-6.3365,-6.3382,-6.3371,-6.3345,-6.3344,-6.3343,-6.3342,0,-6.3038,-6.3032,-6.3131,-6.3151,-6.3157,-6.3225,-6.3241,-6.3294,-6.3291,-6.3363,-6.3379,-6.3375,-6.3433,-6.3421,-6.3484,-6.3475,-6.3583,-6.3566,-6.3575,-6.357,-6.3646,-6.3639,-6.3896,-6.3928,-6.3698,-6.37,-6.3702,0,-6.3154,-6.3219,-6.3246,-6.3282,-6.3299,-6.3357,-6.339,-6.337,-6.3406,-6.3442,-6.349,-6.3545,-6.3588,-6.3682,-6.3684,-6.3732,-6.3715,-6.3802,-6.3722,-6.3727,-6.3715,-6.3711,-6.3717,-6.3818,-6.382,-6.3822,-6.3824,0,-6.336,-6.3354,-6.3404,-6.3454,-6.3495,-6.3532,-6.3565,-6.3596,-6.3579,-6.3621,-6.368,-6.3714,-6.3779,-6.3833,-6.3877,-6.3888,-6.3853,-6.3849,-6.3869,-6.3878,-6.3879,-6.3879,-6.3617,-6.3843,-6.3842,-6.384,-6.3839,-6.3838,-6.351,-6.3565,-6.3592,-6.3649,-6.3672,-6.3704,-6.3755,-6.3759,-6.3809,-6.3862,-6.3846,-6.3913,-6.3938,-6.3994,-6.4011,-6.4062,-6.4029,-6.4058,-6.4065,-6.4072,-6.4081,-6.3872,-6.407,-6.4069,-6.4069,-6.4068,-6.4068,0,-6.3713,-6.3728,-6.3781,-6.3829,-6.3874,-6.3838,-6.3873,-6.3912,-6.3972,-6.3999,-6.4042,-6.411,-6.4162,-6.4167,-6.4216,-6.4256,-6.4241,-6.4269,-6.4265,-6.4268,-6.4108,-6.4086,-6.428,-6.428,-6.428,-6.428,-6.428,-6.428,-6.3824,-6.3915,-6.3911,-6.4012,-6.4025,-6.4093,-6.4115,-6.4144,-6.4165,-6.4243,-6.4287,-6.429,-6.4308,-6.4357,-6.4403,-6.4403,-6.4422,-6.4457,-6.4451,-6.4301,-6.428,-6.426,-6.4238,-6.4461,-6.4462,-6.4606,-6.4607,-6.4609]}]]